TPO Lake Taupo storage,,
From www.emi.ea.govt.nz provided by the Electricity Authority (New Zealand)

Date,Time,Lake level (m),Active storage (Mm�),Active contingent storage (Mm�),QC
1980-01-01,24:00:00,357.101,764.733,.000,320
1980-01-02,24:00:00,357.102,765.245,.000,320
1980-01-03,24:00:00,357.086,755.718,.000,320
1980-01-04,24:00:00,357.062,741.110,.000,320
1980-01-05,24:00:00,357.052,734.750,.000,320
1980-01-06,24:00:00,357.054,736.279,.000,320
1980-01-07,24:00:00,357.035,724.406,.000,320
1980-01-08,24:00:00,357.017,713.543,.000,320
1980-01-09,24:00:00,357.019,714.396,.000,320
1980-01-10,24:00:00,357.029,721.008,.000,320
1980-01-11,24:00:00,357.028,719.843,.000,320
1980-01-12,24:00:00,357.028,720.166,.000,320
1980-01-13,24:00:00,357.028,719.902,.000,320
1980-01-14,24:00:00,357.014,711.654,.000,320
1980-01-15,24:00:00,357.012,710.410,.000,320
1980-01-16,24:00:00,357.025,718.256,.000,320
1980-01-17,24:00:00,357.053,735.591,.000,320
1980-01-18,24:00:00,357.055,736.779,.000,320
1980-01-19,24:00:00,357.040,727.343,.000,320
1980-01-20,24:00:00,357.056,737.085,.000,320
1980-01-21,24:00:00,357.080,751.972,.000,320
1980-01-22,24:00:00,357.109,769.790,.000,320
1980-01-23,24:00:00,357.165,803.791,.000,320
1980-01-24,24:00:00,357.169,806.551,.000,320
1980-01-25,24:00:00,357.162,802.091,.000,320
1980-01-26,24:00:00,357.148,793.164,.000,320
1980-01-27,24:00:00,357.135,785.332,.000,320
1980-01-28,24:00:00,357.124,778.740,.000,320
1980-01-29,24:00:00,357.111,770.533,.000,320
1980-01-30,24:00:00,357.099,763.773,.000,320
1980-01-31,24:00:00,357.089,757.631,.000,320
1980-02-01,24:00:00,357.077,750.256,.000,320
1980-02-02,24:00:00,357.069,745.198,.000,320
1980-02-03,24:00:00,357.067,744.049,.000,320
1980-02-04,24:00:00,357.057,737.811,.000,320
1980-02-05,24:00:00,357.044,730.076,.000,320
1980-02-06,24:00:00,357.034,724.060,.000,320
1980-02-07,24:00:00,357.023,717.012,.000,320
1980-02-08,24:00:00,357.006,706.591,.000,320
1980-02-09,24:00:00,356.992,698.133,.000,320
1980-02-10,24:00:00,356.982,692.116,.000,320
1980-02-11,24:00:00,356.949,672.110,.000,320
1980-02-12,24:00:00,356.924,656.548,.000,320
1980-02-13,24:00:00,356.904,644.362,.000,320
1980-02-14,24:00:00,356.886,633.419,.000,320
1980-02-15,24:00:00,356.879,629.011,.000,320
1980-02-16,24:00:00,356.867,621.813,.000,320
1980-02-17,24:00:00,356.846,609.021,.000,320
1980-02-18,24:00:00,356.840,604.953,.000,320
1980-02-19,24:00:00,356.845,608.561,.000,320
1980-02-20,24:00:00,356.839,604.685,.000,320
1980-02-21,24:00:00,356.821,593.745,.000,320
1980-02-22,24:00:00,356.813,588.532,.000,320
1980-02-23,24:00:00,356.816,590.405,.000,320
1980-02-24,24:00:00,356.804,583.259,.000,320
1980-02-25,24:00:00,356.794,577.132,.000,320
1980-02-26,24:00:00,356.793,576.408,.000,320
1980-02-27,24:00:00,356.783,570.488,.000,320
1980-02-28,24:00:00,356.782,570.070,.000,320
1980-02-29,24:00:00,356.782,569.977,.000,320
1980-03-01,24:00:00,356.799,580.264,.000,320
1980-03-02,24:00:00,356.814,589.376,.000,320
1980-03-03,24:00:00,356.813,588.951,.000,320
1980-03-04,24:00:00,356.824,595.622,.000,320
1980-03-05,24:00:00,356.819,592.694,.000,320
1980-03-06,24:00:00,356.816,590.822,.000,320
1980-03-07,24:00:00,356.811,587.692,.000,320
1980-03-08,24:00:00,356.802,582.177,.000,320
1980-03-09,24:00:00,356.794,577.138,.000,320
1980-03-10,24:00:00,356.787,572.666,.000,320
1980-03-11,24:00:00,356.776,566.036,.000,320
1980-03-12,24:00:00,356.772,563.579,.000,320
1980-03-13,24:00:00,356.752,551.662,.000,320
1980-03-14,24:00:00,356.744,546.664,.000,320
1980-03-15,24:00:00,356.744,546.849,.000,320
1980-03-16,24:00:00,356.775,565.700,.000,320
1980-03-17,24:00:00,356.789,574.384,.000,320
1980-03-18,24:00:00,356.790,574.629,.000,320
1980-03-19,24:00:00,356.776,566.385,.000,320
1980-03-20,24:00:00,356.773,564.473,.000,320
1980-03-21,24:00:00,356.765,559.661,.000,320
1980-03-22,24:00:00,356.751,551.092,.000,320
1980-03-23,24:00:00,356.743,546.085,.000,320
1980-03-24,24:00:00,356.738,542.917,.000,320
1980-03-25,24:00:00,356.730,538.051,.000,320
1980-03-26,24:00:00,356.726,535.724,.000,320
1980-03-27,24:00:00,356.722,533.388,.000,320
1980-03-28,24:00:00,356.715,528.904,.000,320
1980-03-29,24:00:00,356.730,537.836,.000,320
1980-03-30,24:00:00,356.740,544.008,.000,320
1980-03-31,24:00:00,356.755,553.212,.000,320
1980-04-01,24:00:00,356.777,566.748,.000,320
1980-04-02,24:00:00,356.787,572.954,.000,320
1980-04-03,24:00:00,356.800,580.975,.000,320
1980-04-04,24:00:00,356.813,588.707,.000,320
1980-04-05,24:00:00,356.829,598.400,.000,320
1980-04-06,24:00:00,356.846,608.771,.000,320
1980-04-07,24:00:00,356.865,620.741,.000,320
1980-04-08,24:00:00,356.877,627.754,.000,320
1980-04-09,24:00:00,356.894,637.948,.000,320
1980-04-10,24:00:00,356.915,651.216,.000,320
1980-04-11,24:00:00,356.923,656.046,.000,320
1980-04-12,24:00:00,356.935,663.230,.000,320
1980-04-13,24:00:00,356.946,670.159,.000,320
1980-04-14,24:00:00,356.950,672.372,.000,320
1980-04-15,24:00:00,356.941,666.836,.000,320
1980-04-16,24:00:00,356.938,664.962,.000,320
1980-04-17,24:00:00,356.932,661.606,.000,320
1980-04-18,24:00:00,356.927,658.095,.000,320
1980-04-19,24:00:00,356.925,657.177,.000,320
1980-04-20,24:00:00,356.928,659.062,.000,320
1980-04-21,24:00:00,356.934,662.923,.000,320
1980-04-22,24:00:00,356.930,660.230,.000,320
1980-04-23,24:00:00,356.923,656.086,.000,320
1980-04-24,24:00:00,356.917,652.268,.000,320
1980-04-25,24:00:00,356.914,650.550,.000,320
1980-04-26,24:00:00,356.917,652.590,.000,320
1980-04-27,24:00:00,356.926,657.502,.000,320
1980-04-28,24:00:00,356.960,678.498,.000,320
1980-04-29,24:00:00,356.993,698.514,.000,320
1980-04-30,24:00:00,357.011,709.972,.000,320
1980-05-01,24:00:00,357.019,714.627,.000,320
1980-05-02,24:00:00,357.027,719.194,.000,320
1980-05-03,24:00:00,357.033,723.377,.000,320
1980-05-04,24:00:00,357.033,723.238,.000,320
1980-05-05,24:00:00,357.037,725.508,.000,320
1980-05-06,24:00:00,357.029,720.727,.000,320
1980-05-07,24:00:00,357.021,716.040,.000,320
1980-05-08,24:00:00,357.014,711.362,.000,320
1980-05-09,24:00:00,357.005,706.091,.000,320
1980-05-10,24:00:00,356.997,701.052,.000,320
1980-05-11,24:00:00,356.992,698.058,.000,320
1980-05-12,24:00:00,356.987,694.773,.000,320
1980-05-13,24:00:00,356.981,691.561,.000,320
1980-05-14,24:00:00,356.976,688.200,.000,320
1980-05-15,24:00:00,356.973,686.729,.000,320
1980-05-16,24:00:00,356.967,683.045,.000,320
1980-05-17,24:00:00,356.964,681.232,.000,320
1980-05-18,24:00:00,356.970,684.517,.000,320
1980-05-19,24:00:00,356.975,687.994,.000,320
1980-05-20,24:00:00,356.970,684.632,.000,320
1980-05-21,24:00:00,356.972,685.834,.000,320
1980-05-22,24:00:00,356.985,694.062,.000,320
1980-05-23,24:00:00,356.987,695.172,.000,320
1980-05-24,24:00:00,356.990,696.984,.000,320
1980-05-25,24:00:00,357.004,705.558,.000,320
1980-05-26,24:00:00,357.012,710.463,.000,320
1980-05-27,24:00:00,357.012,710.256,.000,320
1980-05-28,24:00:00,357.003,704.567,.000,320
1980-05-29,24:00:00,356.993,698.687,.000,320
1980-05-30,24:00:00,356.985,693.869,.000,320
1980-05-31,24:00:00,356.979,690.437,.000,320
1980-06-01,24:00:00,356.972,686.098,.000,320
1980-06-02,24:00:00,356.971,685.565,.000,320
1980-06-03,24:00:00,356.970,684.402,.000,320
1980-06-04,24:00:00,356.977,688.771,.000,320
1980-06-05,24:00:00,356.997,701.011,.000,320
1980-06-06,24:00:00,356.997,701.283,.000,320
1980-06-07,24:00:00,357.011,709.799,.000,320
1980-06-08,24:00:00,357.017,713.334,.000,320
1980-06-09,24:00:00,357.013,710.944,.000,320
1980-06-10,24:00:00,357.009,708.481,.000,320
1980-06-11,24:00:00,357.006,706.591,.000,320
1980-06-12,24:00:00,357.008,708.077,.000,320
1980-06-13,24:00:00,357.016,712.950,.000,320
1980-06-14,24:00:00,357.010,709.034,.000,320
1980-06-15,24:00:00,356.997,701.399,.000,320
1980-06-16,24:00:00,356.982,692.061,.000,320
1980-06-17,24:00:00,356.975,687.839,.000,320
1980-06-18,24:00:00,356.962,679.949,.000,320
1980-06-19,24:00:00,356.951,673.025,.000,320
1980-06-20,24:00:00,356.939,666.034,.000,320
1980-06-21,24:00:00,356.928,659.272,.000,320
1980-06-22,24:00:00,356.934,662.807,.000,320
1980-06-23,24:00:00,356.936,663.631,.000,320
1980-06-24,24:00:00,356.926,657.634,.000,320
1980-06-25,24:00:00,356.914,650.489,.000,320
1980-06-26,24:00:00,356.903,643.526,.000,320
1980-06-27,24:00:00,356.888,634.588,.000,320
1980-06-28,24:00:00,356.872,624.808,.000,320
1980-06-29,24:00:00,356.857,615.609,.000,320
1980-06-30,24:00:00,356.852,612.511,.000,320
1980-07-01,24:00:00,356.877,627.732,.000,320
1980-07-02,24:00:00,356.893,637.752,.000,320
1980-07-03,24:00:00,356.905,645.242,.000,320
1980-07-04,24:00:00,356.930,660.381,.000,320
1980-07-05,24:00:00,356.940,666.471,.000,320
1980-07-06,24:00:00,356.945,669.092,.000,320
1980-07-07,24:00:00,356.944,669.035,.000,320
1980-07-08,24:00:00,356.938,665.307,.000,320
1980-07-09,24:00:00,356.945,669.144,.000,320
1980-07-10,24:00:00,356.976,688.220,.000,320
1980-07-11,24:00:00,356.994,699.409,.000,320
1980-07-12,24:00:00,357.004,705.163,.000,320
1980-07-13,24:00:00,357.007,707.391,.000,320
1980-07-14,24:00:00,357.004,705.500,.000,320
1980-07-15,24:00:00,357.002,704.145,.000,320
1980-07-16,24:00:00,356.988,695.898,.000,320
1980-07-17,24:00:00,356.982,691.754,.000,320
1980-07-18,24:00:00,356.974,686.964,.000,320
1980-07-19,24:00:00,356.964,681.022,.000,320
1980-07-20,24:00:00,356.957,676.462,.000,320
1980-07-21,24:00:00,356.952,673.809,.000,320
1980-07-22,24:00:00,356.950,672.241,.000,320
1980-07-23,24:00:00,356.955,675.311,.000,320
1980-07-24,24:00:00,356.942,667.336,.000,320
1980-07-25,24:00:00,356.932,661.466,.000,320
1980-07-26,24:00:00,356.921,654.672,.000,320
1980-07-27,24:00:00,356.908,646.498,.000,320
1980-07-28,24:00:00,356.898,640.810,.000,320
1980-07-29,24:00:00,356.887,633.742,.000,320
1980-07-30,24:00:00,356.869,622.961,.000,320
1980-07-31,24:00:00,356.851,611.887,.000,320
1980-08-01,24:00:00,356.849,610.641,.000,320
1980-08-02,24:00:00,356.889,635.202,.000,320
1980-08-03,24:00:00,356.918,652.765,.000,320
1980-08-04,24:00:00,356.923,656.066,.000,320
1980-08-05,24:00:00,356.918,652.682,.000,320
1980-08-06,24:00:00,356.911,648.334,.000,320
1980-08-07,24:00:00,356.898,640.905,.000,320
1980-08-08,24:00:00,356.888,634.472,.000,320
1980-08-09,24:00:00,356.876,627.193,.000,320
1980-08-10,24:00:00,356.874,626.207,.000,320
1980-08-11,24:00:00,356.867,621.436,.000,320
1980-08-12,24:00:00,356.856,615.033,.000,320
1980-08-13,24:00:00,356.848,609.877,.000,320
1980-08-14,24:00:00,356.844,607.830,.000,320
1980-08-15,24:00:00,356.840,605.257,.000,320
1980-08-16,24:00:00,356.853,613.109,.000,320
1980-08-17,24:00:00,356.858,616.291,.000,320
1980-08-18,24:00:00,356.856,615.282,.000,320
1980-08-19,24:00:00,356.852,612.821,.000,320
1980-08-20,24:00:00,356.844,607.685,.000,320
1980-08-21,24:00:00,356.834,601.405,.000,320
1980-08-22,24:00:00,356.824,595.366,.000,320
1980-08-23,24:00:00,356.817,590.937,.000,320
1980-08-24,24:00:00,356.813,588.645,.000,320
1980-08-25,24:00:00,356.803,582.403,.000,320
1980-08-26,24:00:00,356.799,580.129,.000,320
1980-08-27,24:00:00,356.799,580.286,.000,320
1980-08-28,24:00:00,356.829,598.592,.000,320
1980-08-29,24:00:00,356.866,621.202,.000,320
1980-08-30,24:00:00,356.879,629.068,.000,320
1980-08-31,24:00:00,356.881,630.044,.000,320
1980-09-01,24:00:00,356.870,623.686,.000,320
1980-09-02,24:00:00,356.871,624.260,.000,320
1980-09-03,24:00:00,356.873,625.668,.000,320
1980-09-04,24:00:00,356.888,634.377,.000,320
1980-09-05,24:00:00,356.904,644.632,.000,320
1980-09-06,24:00:00,356.916,651.792,.000,320
1980-09-07,24:00:00,356.924,656.542,.000,320
1980-09-08,24:00:00,356.935,663.092,.000,320
1980-09-09,24:00:00,356.937,664.639,.000,320
1980-09-10,24:00:00,356.941,667.082,.000,320
1980-09-11,24:00:00,356.942,667.273,.000,320
1980-09-12,24:00:00,356.942,667.679,.000,320
1980-09-13,24:00:00,356.947,670.505,.000,320
1980-09-14,24:00:00,356.957,677.011,.000,320
1980-09-15,24:00:00,356.960,678.522,.000,320
1980-09-16,24:00:00,356.962,679.693,.000,320
1980-09-17,24:00:00,356.969,684.291,.000,320
1980-09-18,24:00:00,356.972,686.041,.000,320
1980-09-19,24:00:00,356.978,689.728,.000,320
1980-09-20,24:00:00,356.999,702.216,.000,320
1980-09-21,24:00:00,357.016,712.584,.000,320
1980-09-22,24:00:00,357.020,715.198,.000,320
1980-09-23,24:00:00,357.033,723.369,.000,320
1980-09-24,24:00:00,357.039,726.768,.000,320
1980-09-25,24:00:00,357.038,726.253,.000,320
1980-09-26,24:00:00,357.037,725.338,.000,320
1980-09-27,24:00:00,357.038,726.369,.000,320
1980-09-28,24:00:00,357.040,727.177,.000,320
1980-09-29,24:00:00,357.030,721.541,.000,320
1980-09-30,24:00:00,357.026,718.794,.000,320
1980-10-01,24:00:00,357.030,721.350,.000,320
1980-10-02,24:00:00,357.022,716.293,.000,320
1980-10-03,24:00:00,357.018,714.247,.000,320
1980-10-04,24:00:00,357.010,708.996,.000,320
1980-10-05,24:00:00,357.005,705.943,.000,320
1980-10-06,24:00:00,356.993,698.479,.000,320
1980-10-07,24:00:00,356.984,693.071,.000,320
1980-10-08,24:00:00,356.976,688.167,.000,320
1980-10-09,24:00:00,356.968,683.315,.000,320
1980-10-10,24:00:00,356.962,679.727,.000,320
1980-10-11,24:00:00,356.963,680.661,.000,320
1980-10-12,24:00:00,356.960,678.488,.000,320
1980-10-13,24:00:00,356.947,670.389,.000,320
1980-10-14,24:00:00,356.940,666.611,.000,320
1980-10-15,24:00:00,356.936,663.837,.000,320
1980-10-16,24:00:00,356.922,655.460,.000,320
1980-10-17,24:00:00,356.922,655.609,.000,320
1980-10-18,24:00:00,356.941,667.126,.000,320
1980-10-19,24:00:00,356.939,665.519,.000,320
1980-10-20,24:00:00,356.939,665.764,.000,320
1980-10-21,24:00:00,356.936,664.159,.000,320
1980-10-22,24:00:00,356.930,660.533,.000,320
1980-10-23,24:00:00,356.927,658.298,.000,320
1980-10-24,24:00:00,356.917,652.036,.000,320
1980-10-25,24:00:00,356.908,646.805,.000,320
1980-10-26,24:00:00,356.901,642.400,.000,320
1980-10-27,24:00:00,356.897,640.069,.000,320
1980-10-28,24:00:00,356.892,637.146,.000,320
1980-10-29,24:00:00,356.889,634.876,.000,320
1980-10-30,24:00:00,356.883,631.227,.000,320
1980-10-31,24:00:00,356.876,626.952,.000,320
1980-11-01,24:00:00,356.873,625.193,.000,320
1980-11-02,24:00:00,356.867,621.585,.000,320
1980-11-03,24:00:00,356.858,616.239,.000,320
1980-11-04,24:00:00,356.850,611.233,.000,320
1980-11-05,24:00:00,356.866,620.991,.000,320
1980-11-06,24:00:00,356.874,625.784,.000,320
1980-11-07,24:00:00,356.870,623.412,.000,320
1980-11-08,24:00:00,356.879,629.122,.000,320
1980-11-09,24:00:00,356.889,635.183,.000,320
1980-11-10,24:00:00,356.895,638.559,.000,320
1980-11-11,24:00:00,356.897,639.993,.000,320
1980-11-12,24:00:00,356.890,635.948,.000,320
1980-11-13,24:00:00,356.881,630.525,.000,320
1980-11-14,24:00:00,356.870,623.724,.000,320
1980-11-15,24:00:00,356.869,623.092,.000,320
1980-11-16,24:00:00,356.858,616.162,.000,320
1980-11-17,24:00:00,356.841,605.910,.000,320
1980-11-18,24:00:00,356.829,598.343,.000,320
1980-11-19,24:00:00,356.818,591.737,.000,320
1980-11-20,24:00:00,356.809,586.303,.000,320
1980-11-21,24:00:00,356.799,580.267,.000,320
1980-11-22,24:00:00,356.783,570.546,.000,320
1980-11-23,24:00:00,356.775,565.814,.000,320
1980-11-24,24:00:00,356.770,562.496,.000,320
1980-11-25,24:00:00,356.766,560.121,.000,320
1980-11-26,24:00:00,356.767,560.602,.000,320
1980-11-27,24:00:00,356.762,557.601,.000,320
1980-11-28,24:00:00,356.765,559.453,.000,320
1980-11-29,24:00:00,356.769,561.988,.000,320
1980-11-30,24:00:00,356.782,569.595,.000,320
1980-12-01,24:00:00,356.833,601.152,.000,320
1980-12-02,24:00:00,356.844,607.912,.000,320
1980-12-03,24:00:00,356.846,609.001,.000,320
1980-12-04,24:00:00,356.852,612.625,.000,320
1980-12-05,24:00:00,356.845,608.483,.000,320
1980-12-06,24:00:00,356.838,603.848,.000,320
1980-12-07,24:00:00,356.835,601.886,.000,320
1980-12-08,24:00:00,356.826,596.877,.000,320
1980-12-09,24:00:00,356.805,584.097,.000,320
1980-12-10,24:00:00,356.782,569.520,.000,320
1980-12-11,24:00:00,356.772,563.579,.000,320
1980-12-12,24:00:00,356.764,558.732,.000,320
1980-12-13,24:00:00,356.751,550.650,.000,320
1980-12-14,24:00:00,356.732,539.426,.000,320
1980-12-15,24:00:00,356.721,532.301,.000,320
1980-12-16,24:00:00,356.715,529.022,.000,320
1980-12-17,24:00:00,356.694,516.130,.000,320
1980-12-18,24:00:00,356.677,505.629,.000,320
1980-12-19,24:00:00,356.670,501.654,.000,320
1980-12-20,24:00:00,356.727,536.289,.000,320
1980-12-21,24:00:00,356.761,557.006,.000,320
1980-12-22,24:00:00,356.763,558.097,.000,320
1980-12-23,24:00:00,356.773,564.204,.000,320
1980-12-24,24:00:00,356.792,575.642,.000,320
1980-12-25,24:00:00,356.821,593.591,.000,320
1980-12-26,24:00:00,356.868,622.044,.000,320
1980-12-27,24:00:00,356.896,639.496,.000,320
1980-12-28,24:00:00,356.921,654.523,.000,320
1980-12-29,24:00:00,356.938,664.909,.000,320
1980-12-30,24:00:00,356.945,669.165,.000,320
1980-12-31,24:00:00,356.942,667.731,.000,320
1981-01-01,24:00:00,356.944,668.976,.000,320
1981-01-02,24:00:00,356.961,678.886,.000,320
1981-01-03,24:00:00,356.970,684.594,.000,320
1981-01-04,24:00:00,356.974,687.175,.000,320
1981-01-05,24:00:00,356.978,689.802,.000,320
1981-01-06,24:00:00,356.967,682.796,.000,320
1981-01-07,24:00:00,356.961,679.036,.000,320
1981-01-08,24:00:00,356.957,676.645,.000,320
1981-01-09,24:00:00,356.954,674.968,.000,320
1981-01-10,24:00:00,356.941,667.201,.000,320
1981-01-11,24:00:00,356.941,666.741,.000,320
1981-01-12,24:00:00,356.938,665.086,.000,320
1981-01-13,24:00:00,356.948,671.463,.000,320
1981-01-14,24:00:00,356.949,672.107,.000,320
1981-01-15,24:00:00,356.945,669.164,.000,320
1981-01-16,24:00:00,356.948,671.308,.000,320
1981-01-17,24:00:00,356.945,669.663,.000,320
1981-01-18,24:00:00,356.957,677.017,.000,320
1981-01-19,24:00:00,356.951,672.982,.000,320
1981-01-20,24:00:00,356.955,675.222,.000,320
1981-01-21,24:00:00,356.958,677.051,.000,320
1981-01-22,24:00:00,356.942,667.846,.000,320
1981-01-23,24:00:00,356.941,667.163,.000,320
1981-01-24,24:00:00,356.944,668.669,.000,320
1981-01-25,24:00:00,356.938,665.082,.000,320
1981-01-26,24:00:00,356.931,661.053,.000,320
1981-01-27,24:00:00,356.913,649.609,.000,320
1981-01-28,24:00:00,356.899,641.367,.000,320
1981-01-29,24:00:00,356.880,629.755,.000,320
1981-01-30,24:00:00,356.866,621.221,.000,320
1981-01-31,24:00:00,356.850,611.329,.000,320
1981-02-01,24:00:00,356.842,606.440,.000,320
1981-02-02,24:00:00,356.826,596.665,.000,320
1981-02-03,24:00:00,356.815,590.078,.000,320
1981-02-04,24:00:00,356.789,574.364,.000,320
1981-02-05,24:00:00,356.756,554.143,.000,320
1981-02-06,24:00:00,356.749,549.621,.000,320
1981-02-07,24:00:00,356.744,546.835,.000,320
1981-02-08,24:00:00,356.750,550.212,.000,320
1981-02-09,24:00:00,356.749,549.774,.000,320
1981-02-10,24:00:00,356.741,544.846,.000,320
1981-02-11,24:00:00,356.731,538.531,.000,320
1981-02-12,24:00:00,356.739,543.397,.000,320
1981-02-13,24:00:00,356.765,559.113,.000,320
1981-02-14,24:00:00,356.768,561.289,.000,320
1981-02-15,24:00:00,356.789,574.019,.000,320
1981-02-16,24:00:00,356.789,574.076,.000,320
1981-02-17,24:00:00,356.780,568.872,.000,320
1981-02-18,24:00:00,356.769,562.032,.000,320
1981-02-19,24:00:00,356.750,550.248,.000,320
1981-02-20,24:00:00,356.751,550.823,.000,320
1981-02-21,24:00:00,356.742,545.225,.000,320
1981-02-22,24:00:00,356.740,543.855,.000,320
1981-02-23,24:00:00,356.732,539.523,.000,320
1981-02-24,24:00:00,356.720,532.224,.000,320
1981-02-25,24:00:00,356.712,526.742,.000,320
1981-02-26,24:00:00,356.706,523.347,.000,320
1981-02-27,24:00:00,356.703,521.280,.000,320
1981-02-28,24:00:00,356.702,520.920,.000,320
1981-03-01,24:00:00,356.705,522.678,.000,320
1981-03-02,24:00:00,356.712,526.786,.000,320
1981-03-03,24:00:00,356.706,523.440,.000,320
1981-03-04,24:00:00,356.692,514.851,.000,320
1981-03-05,24:00:00,356.680,507.634,.000,320
1981-03-06,24:00:00,356.669,500.455,.000,320
1981-03-07,24:00:00,356.654,491.767,.000,320
1981-03-08,24:00:00,356.646,486.957,.000,320
1981-03-09,24:00:00,356.650,489.382,.000,320
1981-03-10,24:00:00,356.652,490.542,.000,320
1981-03-11,24:00:00,356.636,480.707,.000,320
1981-03-12,24:00:00,356.622,472.042,.000,320
1981-03-13,24:00:00,356.607,462.667,.000,320
1981-03-14,24:00:00,356.597,456.825,.000,320
1981-03-15,24:00:00,356.594,455.181,.000,320
1981-03-16,24:00:00,356.580,446.322,.000,320
1981-03-17,24:00:00,356.571,441.073,.000,320
1981-03-18,24:00:00,356.558,432.764,.000,320
1981-03-19,24:00:00,356.551,428.943,.000,320
1981-03-20,24:00:00,356.525,412.948,.000,320
1981-03-21,24:00:00,356.518,408.560,.000,320
1981-03-22,24:00:00,356.501,398.279,.000,320
1981-03-23,24:00:00,356.494,393.817,.000,320
1981-03-24,24:00:00,356.488,389.903,.000,320
1981-03-25,24:00:00,356.488,390.150,.000,320
1981-03-26,24:00:00,356.524,411.974,.000,320
1981-03-27,24:00:00,356.551,428.832,.000,320
1981-03-28,24:00:00,356.559,433.717,.000,320
1981-03-29,24:00:00,356.556,431.730,.000,320
1981-03-30,24:00:00,356.561,435.058,.000,320
1981-03-31,24:00:00,356.556,431.754,.000,320
1981-04-01,24:00:00,356.551,428.413,.000,320
1981-04-02,24:00:00,356.535,418.656,.000,320
1981-04-03,24:00:00,356.524,411.950,.000,320
1981-04-04,24:00:00,356.512,404.755,.000,320
1981-04-05,24:00:00,356.507,401.871,.000,320
1981-04-06,24:00:00,356.496,395.341,.000,320
1981-04-07,24:00:00,356.484,387.855,.000,320
1981-04-08,24:00:00,356.470,378.901,.000,320
1981-04-09,24:00:00,356.450,366.645,.000,320
1981-04-10,24:00:00,356.431,355.436,.000,320
1981-04-11,24:00:00,356.425,351.811,.000,320
1981-04-12,24:00:00,356.425,351.388,.000,320
1981-04-13,24:00:00,356.431,355.302,.000,320
1981-04-14,24:00:00,356.417,347.041,.000,320
1981-04-15,24:00:00,356.415,345.726,.000,320
1981-04-16,24:00:00,356.436,358.194,.000,320
1981-04-17,24:00:00,356.442,362.323,.000,320
1981-04-18,24:00:00,356.444,363.246,.000,320
1981-04-19,24:00:00,356.446,364.486,.000,320
1981-04-20,24:00:00,356.444,363.428,.000,320
1981-04-21,24:00:00,356.444,363.421,.000,320
1981-04-22,24:00:00,356.436,358.296,.000,320
1981-04-23,24:00:00,356.423,350.654,.000,320
1981-04-24,24:00:00,356.409,341.849,.000,320
1981-04-25,24:00:00,356.398,335.446,.000,320
1981-04-26,24:00:00,356.403,338.062,.000,320
1981-04-27,24:00:00,356.393,332.425,.000,320
1981-04-28,24:00:00,356.381,324.734,.000,320
1981-04-29,24:00:00,356.359,311.464,.000,320
1981-04-30,24:00:00,356.358,310.638,.000,320
1981-05-01,24:00:00,356.360,311.702,.000,320
1981-05-02,24:00:00,356.351,306.470,.000,320
1981-05-03,24:00:00,356.350,305.577,.000,320
1981-05-04,24:00:00,356.341,300.235,.000,320
1981-05-05,24:00:00,356.329,293.093,.000,320
1981-05-06,24:00:00,356.310,281.674,.000,320
1981-05-07,24:00:00,356.288,268.041,.000,320
1981-05-08,24:00:00,356.284,265.432,.000,320
1981-05-09,24:00:00,356.319,287.002,.000,320
1981-05-10,24:00:00,356.337,298.194,.000,320
1981-05-11,24:00:00,356.351,306.696,.000,320
1981-05-12,24:00:00,356.354,308.027,.000,320
1981-05-13,24:00:00,356.350,305.619,.000,320
1981-05-14,24:00:00,356.338,298.766,.000,320
1981-05-15,24:00:00,356.325,290.573,.000,320
1981-05-16,24:00:00,356.313,283.168,.000,320
1981-05-17,24:00:00,356.307,279.846,.000,320
1981-05-18,24:00:00,356.300,275.393,.000,320
1981-05-19,24:00:00,356.289,268.671,.000,320
1981-05-20,24:00:00,356.287,267.093,.000,320
1981-05-21,24:00:00,356.286,266.518,.000,320
1981-05-22,24:00:00,356.279,262.242,.000,320
1981-05-23,24:00:00,356.284,265.295,.000,320
1981-05-24,24:00:00,356.298,273.942,.000,320
1981-05-25,24:00:00,356.294,271.864,.000,320
1981-05-26,24:00:00,356.281,263.844,.000,320
1981-05-27,24:00:00,356.267,254.871,.000,320
1981-05-28,24:00:00,356.252,245.683,.000,320
1981-05-29,24:00:00,356.238,237.537,.000,320
1981-05-30,24:00:00,356.223,227.950,.000,320
1981-05-31,24:00:00,356.206,217.693,.000,320